When you browse on this site, cookies collect data to enhance your experience and personalize the content and advertising you see.
Visit our Privacy Policy to learn more. By continuing to use the site, you agree to this use of cookies and data.

Hourly Weather Igls

Today, 5 August, Wednesday

Time Temperature Precipitation Wind Pressure Humidity
00:00 +9°C° 0 mm 1 mps 684 mmHg 96%
01:00 +9°C° 0 mm 1 mps 684 mmHg 95%
02:00 +8°C° 0 mm 1 mps 684 mmHg 95%
03:00 +8°C° 0 mm 1 mps 685 mmHg 95%
04:00 +8°C° 0 mm 1 mps 685 mmHg 96%
05:00 +9°C° 0 mm 1 mps 685 mmHg 94%
06:00 +10°C° 0 mm 1 mps 685 mmHg 92%
07:00 +12°C° 0 mm 1 mps 685 mmHg 90%
08:00 +14°C° 0 mm 1 mps 686 mmHg 81%
09:00 +16°C° 0 mm 1 mps 686 mmHg 71%
10:00 +19°C° 0 mm 1 mps 686 mmHg 62%
11:00 +19°C° 0 mm 2 mps 686 mmHg 58%
12:00 +21°C° 0 mm 2 mps 686 mmHg 54%
13:00 +23°C° 0 mm 2 mps 686 mmHg 51%
14:00 +23°C° 0 mm 2 mps 686 mmHg 53%
15:00 +23°C° 0 mm 2 mps 686 mmHg 55%
16:00 +23°C° 0 mm 2 mps 686 mmHg 56%
17:00 +20°C° 0 mm 2 mps 686 mmHg 66%
18:00 +19°C° 0 mm 2 mps 686 mmHg 75%
19:00 +18°C° 0 mm 1 mps 685 mmHg 84%
20:00 +15°C° 0 mm 1 mps 685 mmHg 88%
21:00 +14°C° 0 mm 1 mps 686 mmHg 92%
22:00 +12°C° 0 mm 1 mps 686 mmHg 95%
23:00 +12°C° 0 mm 1 mps 686 mmHg 95%

Tomorrow, 6 August, Thursday

Time Temperature Precipitation Wind Pressure Humidity
00:00 +12°C° 0 mm 1 mps 686 mmHg 94%
01:00 +12°C° 0 mm 1 mps 686 mmHg 93%
02:00 +12°C° 0 mm 1 mps 686 mmHg 93%
03:00 +10°C° 0 mm 0 mps 686 mmHg 92%
04:00 +10°C° 0 mm 0 mps 686 mmHg 91%
05:00 +12°C° 0 mm 0 mps 686 mmHg 86%
06:00 +14°C° 0 mm 0 mps 686 mmHg 81%
07:00 +16°C° 0 mm 0 mps 687 mmHg 76%
08:00 +18°C° 0 mm 0 mps 687 mmHg 68%
09:00 +23°C° 0 mm 1 mps 688 mmHg 59%
10:00 +25°C° 0 mm 1 mps 688 mmHg 50%
11:00 +26°C° 0 mm 1 mps 688 mmHg 49%
12:00 +27°C° 0 mm 2 mps 688 mmHg 47%
13:00 +27°C° 0 mm 2 mps 688 mmHg 45%
14:00 +27°C° 0 mm 2 mps 688 mmHg 49%
15:00 +27°C° 0 mm 2 mps 688 mmHg 52%
16:00 +26°C° 0 mm 2 mps 688 mmHg 55%
17:00 +25°C° 0.1 mm 2 mps 688 mmHg 66%
18:00 +23°C° 0.1 mm 2 mps 688 mmHg 77%
19:00 +21°C° 0.1 mm 1 mps 688 mmHg 88%
20:00 +20°C° 0 mm 1 mps 688 mmHg 91%
21:00 +18°C° 0 mm 1 mps 688 mmHg 93%
22:00 +15°C° 0 mm 0 mps 688 mmHg 96%
23:00 +15°C° 0 mm 0 mps 688 mmHg 96%

Day after tomorrow, 7 August, Friday

Time Temperature Precipitation Wind Pressure Humidity
00:00 +14°C° 0 mm 0 mps 688 mmHg 95%
01:00 +15°C° 0 mm 1 mps 688 mmHg 95%
02:00 +15°C° 0 mm 1 mps 688 mmHg 94%
03:00 +15°C° 0 mm 1 mps 688 mmHg 94%
04:00 +15°C° 0 mm 1 mps 688 mmHg 93%
05:00 +15°C° 0 mm 0 mps 688 mmHg 90%
06:00 +17°C° 0 mm 0 mps 689 mmHg 86%
07:00 +19°C° 0 mm 0 mps 689 mmHg 83%
08:00 +21°C° 0 mm 0 mps 689 mmHg 73%
09:00 +25°C° 0 mm 1 mps 690 mmHg 64%
10:00 +27°C° 0 mm 1 mps 690 mmHg 55%
11:00 +28°C° 0 mm 1 mps 690 mmHg 52%
12:00 +29°C° 0 mm 1 mps 690 mmHg 49%
13:00 +29°C° 0 mm 2 mps 690 mmHg 47%
14:00 +29°C° 0.2 mm 2 mps 690 mmHg 50%
15:00 +29°C° 0.2 mm 2 mps 689 mmHg 53%
16:00 +28°C° 0.2 mm 2 mps 689 mmHg 56%
17:00 +26°C° 0.4 mm 1 mps 689 mmHg 67%
18:00 +24°C° 0.4 mm 1 mps 689 mmHg 79%
19:00 +20°C° 0.4 mm 0 mps 688 mmHg 91%
20:00 +19°C° 0.1 mm 0 mps 688 mmHg 92%
21:00 +20°C° 0.1 mm 1 mps 688 mmHg 93%
22:00 +19°C° 0.1 mm 1 mps 688 mmHg 95%
23:00 +18°C° 0 mm 1 mps 688 mmHg 94%

8 August, Saturday

Time Temperature Precipitation Wind Pressure Humidity
00:00 +18°C° 0 mm 1 mps 688 mmHg 94%
01:00 +18°C° 0 mm 1 mps 688 mmHg 94%
02:00 +18°C° 0 mm 1 mps 688 mmHg 94%
03:00 +16°C° 0 mm 1 mps 688 mmHg 94%
04:00 +16°C° 0 mm 1 mps 688 mmHg 94%
05:00 +19°C° 0 mm 1 mps 688 mmHg 92%
06:00 +20°C° 0 mm 1 mps 689 mmHg 89%
07:00 +19°C° 0 mm 0 mps 689 mmHg 86%
08:00 +23°C° 0 mm 1 mps 689 mmHg 75%
09:00 +26°C° 0 mm 1 mps 690 mmHg 64%
10:00 +28°C° 0 mm 1 mps 690 mmHg 53%
11:00 +29°C° 0 mm 1 mps 690 mmHg 48%
12:00 +30°C° 0 mm 2 mps 690 mmHg 43%
13:00 +30°C° 0 mm 2 mps 689 mmHg 38%
14:00 +30°C° 0 mm 2 mps 689 mmHg 41%
15:00 +29°C° 0 mm 2 mps 689 mmHg 43%
16:00 +29°C° 0 mm 2 mps 689 mmHg 45%
17:00 +27°C° 0.2 mm 2 mps 689 mmHg 59%
18:00 +25°C° 0.2 mm 2 mps 688 mmHg 72%
19:00 +23°C° 0.2 mm 1 mps 688 mmHg 86%
20:00 +21°C° 0 mm 1 mps 688 mmHg 88%
21:00 +20°C° 0 mm 1 mps 688 mmHg 91%
22:00 +18°C° 0 mm 1 mps 688 mmHg 93%
23:00 +18°C° 0 mm 1 mps 688 mmHg 93%

9 August, Sunday

Time Temperature Precipitation Wind Pressure Humidity
00:00 +18°C° 0 mm 1 mps 688 mmHg 93%
01:00 +16°C° 0 mm 1 mps 687 mmHg 93%
02:00 +16°C° 0 mm 1 mps 687 mmHg 92%
03:00 +15°C° 0 mm 0 mps 687 mmHg 92%
04:00 +15°C° 0 mm 0 mps 686 mmHg 92%
05:00 +16°C° 0 mm 0 mps 687 mmHg 89%
06:00 +18°C° 0 mm 0 mps 687 mmHg 85%
07:00 +19°C° 0 mm 0 mps 688 mmHg 82%
08:00 +21°C° 0 mm 0 mps 688 mmHg 72%
09:00 +26°C° 0 mm 1 mps 688 mmHg 62%
10:00 +28°C° 0 mm 1 mps 689 mmHg 51%
11:00 +29°C° 0 mm 1 mps 688 mmHg 47%
12:00 +30°C° 0 mm 1 mps 688 mmHg 43%
13:00 +30°C° 0 mm 2 mps 688 mmHg 39%
14:00 +30°C° 0 mm 2 mps 688 mmHg 41%
15:00 +29°C° 0 mm 2 mps 687 mmHg 43%
16:00 +29°C° 0 mm 2 mps 687 mmHg 45%
17:00 +27°C° 0.1 mm 2 mps 687 mmHg 58%
18:00 +25°C° 0.1 mm 1 mps 687 mmHg 71%
19:00 +23°C° 0.1 mm 1 mps 686 mmHg 84%
20:00 +21°C° 0.1 mm 1 mps 686 mmHg 87%
21:00 +20°C° 0.1 mm 1 mps 686 mmHg 89%
22:00 +19°C° 0.1 mm 1 mps 686 mmHg 92%
23:00 +19°C° 0 mm 1 mps 686 mmHg 92%

10 August, Monday

Time Temperature Precipitation Wind Pressure Humidity
00:00 +18°C° 0 mm 1 mps 686 mmHg 91%
01:00 +18°C° 0 mm 1 mps 686 mmHg 90%
02:00 +18°C° 0 mm 1 mps 686 mmHg 90%
03:00 +18°C° 0 mm 1 mps 686 mmHg 90%
04:00 +18°C° 0 mm 1 mps 685 mmHg 90%
05:00 +19°C° 0 mm 1 mps 686 mmHg 87%
06:00 +20°C° 0 mm 1 mps 686 mmHg 83%
07:00 +22°C° 0 mm 1 mps 686 mmHg 80%
08:00 +24°C° 0 mm 1 mps 687 mmHg 70%
09:00 +27°C° 0 mm 1 mps 687 mmHg 61%
10:00 +29°C° 0 mm 1 mps 687 mmHg 51%
11:00 +30°C° 0 mm 1 mps 687 mmHg 47%
12:00 +30°C° 0 mm 1 mps 687 mmHg 43%
13:00 +31°C° 0 mm 1 mps 687 mmHg 39%
14:00 +30°C° 0.3 mm 2 mps 687 mmHg 43%
15:00 +30°C° 0.3 mm 2 mps 687 mmHg 47%
16:00 +29°C° 0.3 mm 2 mps 687 mmHg 51%
17:00 +27°C° 0.6 mm 2 mps 686 mmHg 63%
18:00 +25°C° 0.6 mm 1 mps 686 mmHg 74%
19:00 +23°C° 0.6 mm 1 mps 686 mmHg 86%
20:00 +22°C° 0.2 mm 1 mps 686 mmHg 87%
21:00 +21°C° 0.2 mm 1 mps 686 mmHg 88%
22:00 +20°C° 0.2 mm 1 mps 686 mmHg 89%
23:00 +19°C° 0 mm 1 mps 686 mmHg 88%
Show more